Back to catalog

CZ-6A DEB

AlivePO
NORAD 64649·DEBRIS·🇨🇳 China

Launched Aug 6, 2024 from Taiyuan Satellite Launch Center

Loading…

Next Passes (next 24 hours)

TLE

FreshSource: Space-Track

Epoch: Sep 14, 2026, 10:19 UTC

1 64649U 24140AEP 26257.43021485  .00003920  00000-0  92097-3 0  9993
2 64649  88.9174 252.8594 0054910 356.6772   3.4064 14.53348471102233

Track CZ-6A DEB in real time with AllMySat

Download on the App Store